RYR48N LZKZ-LOWS

Flight info

Callsign RYR48N
Flight time 0h 53m
Altitude 24000
Route TAKOS M141 OKR L856 MAREG/N0457F320 DCT BARUG DCT MATIG MATIG2R
Aircraft B738/M-SDE2E3FGHIRWXY/LB1

Departure

Time 2026-04-22 17:57
Airport Košice International Airport (LZKZ)

Arrival

Time 2026-04-22 18:50
Airport Salzburg Airport (LOWS)
Time Latitude Longitude Altitude Speed Heading
2026-04-22 17:28 48.67243 21.23976 756 ft 0 kts 14°
2026-04-22 17:49 48.67257 21.23981 754 ft 4 kts 13°
2026-04-22 17:50 48.67285 21.24033 753 ft 10 kts 88°
2026-04-22 17:50 48.67267 21.24167 754 ft 16 kts 103°
2026-04-22 17:50 48.67238 21.24357 756 ft 20 kts 103°
2026-04-22 17:50 48.67206 21.24565 757 ft 20 kts 102°
2026-04-22 17:51 48.67170 21.24727 753 ft 14 kts 137°
2026-04-22 17:51 48.67085 21.24736 756 ft 13 kts 193°
2026-04-22 17:51 48.66994 21.24705 757 ft 15 kts 193°
2026-04-22 17:51 48.66883 21.24667 753 ft 19 kts 193°
2026-04-22 17:52 48.66744 21.24620 756 ft 22 kts 192°
2026-04-22 17:52 48.66596 21.24568 753 ft 22 kts 193°
2026-04-22 17:52 48.66453 21.24517 753 ft 21 kts 193°
2026-04-22 17:52 48.66316 21.24468 754 ft 20 kts 193°
2026-04-22 17:53 48.66186 21.24423 756 ft 19 kts 193°
2026-04-22 17:53 48.66061 21.24378 756 ft 18 kts 193°
2026-04-22 17:53 48.65942 21.24335 756 ft 17 kts 193°
2026-04-22 17:53 48.65820 21.24293 756 ft 20 kts 193°
2026-04-22 17:54 48.65678 21.24244 756 ft 21 kts 193°
2026-04-22 17:54 48.65534 21.24195 756 ft 21 kts 193°
2026-04-22 17:54 48.65395 21.24148 756 ft 20 kts 193°
2026-04-22 17:54 48.65262 21.24101 756 ft 19 kts 193°
2026-04-22 17:55 48.65178 21.24072 756 ft 18 kts 193°
2026-04-22 17:55 48.65015 21.24016 756 ft 17 kts 193°
2026-04-22 17:55 48.64917 21.23928 756 ft 16 kts 236°
2026-04-22 17:55 48.64912 21.23770 755 ft 16 kts 301°
2026-04-22 17:56 48.64991 21.23675 754 ft 14 kts 343°
2026-04-22 17:56 48.65137 21.23711 756 ft 46 kts 13°
2026-04-22 17:56 48.65696 21.23905 754 ft 116 kts 13°
2026-04-22 17:56 48.66640 21.24228 952 ft 152 kts 13°
2026-04-22 17:57 48.67676 21.24604 1704 ft 155 kts 13°
2026-04-22 17:57 48.68738 21.25009 2495 ft 156 kts 12°
2026-04-22 17:57 48.69812 21.25383 3275 ft 160 kts 10°
2026-04-22 17:57 48.70961 21.25718 3885 ft 181 kts
2026-04-22 17:58 48.72201 21.25043 4100 ft 210 kts 319°
2026-04-22 17:58 48.72851 21.22996 4574 ft 234 kts 280°
2026-04-22 17:58 48.72693 21.20463 5133 ft 255 kts 263°
2026-04-22 17:58 48.72285 21.17766 5791 ft 268 kts 261°
2026-04-22 17:59 48.71835 21.15012 6732 ft 270 kts 260°
2026-04-22 17:59 48.71383 21.12237 7617 ft 274 kts 260°
2026-04-22 17:59 48.70935 21.09409 8497 ft 278 kts 260°
2026-04-22 17:59 48.70487 21.06544 9375 ft 282 kts 259°
2026-04-22 18:00 48.70191 21.04626 9968 ft 284 kts 259°
2026-04-22 18:00 48.69589 21.00686 10665 ft 304 kts 260°
2026-04-22 18:00 48.69101 20.97442 10855 ft 329 kts 259°
2026-04-22 18:00 48.68628 20.93937 11115 ft 349 kts 262°
2026-04-22 18:01 48.68225 20.90256 11672 ft 359 kts 263°
2026-04-22 18:01 48.67838 20.86488 12335 ft 366 kts 264°
2026-04-22 18:01 48.67448 20.82655 13020 ft 373 kts 264°
2026-04-22 18:01 48.67043 20.78738 13752 ft 380 kts 264°
2026-04-22 18:02 48.66624 20.74761 14483 ft 385 kts 263°
2026-04-22 18:02 48.66192 20.70737 15232 ft 390 kts 263°
2026-04-22 18:02 48.65751 20.66668 15938 ft 395 kts 263°
2026-04-22 18:02 48.65309 20.62601 16670 ft 400 kts 263°
2026-04-22 18:03 48.64852 20.58423 17375 ft 405 kts 263°
2026-04-22 18:03 48.64387 20.54199 18052 ft 410 kts 263°
2026-04-22 18:03 48.63913 20.49913 18674 ft 416 kts 263°
2026-04-22 18:03 48.63431 20.45574 19253 ft 421 kts 263°
2026-04-22 18:04 48.62941 20.41179 19821 ft 427 kts 263°
2026-04-22 18:04 48.62443 20.36732 20363 ft 432 kts 263°
2026-04-22 18:04 48.61935 20.32218 20878 ft 439 kts 263°
2026-04-22 18:04 48.61420 20.27646 21413 ft 444 kts 262°
2026-04-22 18:05 48.61074 20.24592 21824 ft 446 kts 262°
2026-04-22 18:05 48.60378 20.18459 22663 ft 450 kts 262°
2026-04-22 18:05 48.59843 20.13773 23136 ft 456 kts 262°
2026-04-22 18:05 48.59301 20.09030 23623 ft 461 kts 262°
2026-04-22 18:06 48.58750 20.04235 24050 ft 465 kts 262°
2026-04-22 18:06 48.58192 19.99395 24459 ft 470 kts 262°
2026-04-22 18:06 48.57626 19.94510 24839 ft 475 kts 262°
2026-04-22 18:06 48.57246 19.91243 25087 ft 478 kts 262°
2026-04-22 18:07 48.56667 19.86274 25422 ft 483 kts 262°
2026-04-22 18:07 48.56079 19.81244 25719 ft 490 kts 262°
2026-04-22 18:07 48.55288 19.74504 26232 ft 494 kts 261°
2026-04-22 18:07 48.54683 19.69385 26590 ft 498 kts 261°
2026-04-22 18:08 48.54071 19.64220 26904 ft 502 kts 261°
2026-04-22 18:08 48.53661 19.60771 27129 ft 505 kts 261°
2026-04-22 18:08 48.53036 19.55534 27473 ft 509 kts 261°
2026-04-22 18:08 48.52404 19.50264 27802 ft 513 kts 261°
2026-04-22 18:09 48.51765 19.44958 28224 ft 514 kts 261°
2026-04-22 18:09 48.51124 19.39649 28605 ft 517 kts 261°
2026-04-22 18:09 48.50475 19.34298 28854 ft 521 kts 261°
2026-04-22 18:09 48.49818 19.28900 29089 ft 526 kts 261°
2026-04-22 18:10 48.49152 19.23457 29391 ft 529 kts 261°
2026-04-22 18:10 48.48480 19.17984 29724 ft 532 kts 260°
2026-04-22 18:10 48.47802 19.12492 30157 ft 533 kts 260°
2026-04-22 18:10 48.47132 19.07087 30573 ft 531 kts 260°
2026-04-22 18:11 48.46456 19.01643 31111 ft 526 kts 260°
2026-04-22 18:11 48.45784 18.96264 31770 ft 519 kts 261°
2026-04-22 18:11 48.45173 18.90951 32450 ft 510 kts 264°
2026-04-22 18:11 48.44810 18.85667 32979 ft 506 kts 267°
2026-04-22 18:12 48.44557 18.80393 33403 ft 504 kts 269°
2026-04-22 18:12 48.44347 18.75133 33836 ft 502 kts 269°
2026-04-22 18:12 48.44139 18.69910 34289 ft 498 kts 269°
2026-04-22 18:12 48.43917 18.64721 34710 ft 495 kts 269°
2026-04-22 18:13 48.43678 18.59580 35132 ft 490 kts 268°
2026-04-22 18:13 48.43427 18.54531 35455 ft 490 kts 268°
2026-04-22 18:13 48.43161 18.49419 35726 ft 490 kts 268°
2026-04-22 18:13 48.42886 18.44320 36004 ft 489 kts 268°
2026-04-22 18:14 48.42609 18.39224 36308 ft 487 kts 268°
2026-04-22 18:14 48.42330 18.34154 36663 ft 485 kts 268°
2026-04-22 18:14 48.42051 18.29106 37006 ft 483 kts 268°
2026-04-22 18:14 48.41771 18.24073 37315 ft 482 kts 268°
2026-04-22 18:15 48.41490 18.19045 37596 ft 482 kts 268°
2026-04-22 18:15 48.41208 18.14031 37870 ft 481 kts 267°
2026-04-22 18:15 48.40925 18.09027 38160 ft 479 kts 267°
2026-04-22 18:16 48.40349 17.98980 38162 ft 482 kts 267°
2026-04-22 18:16 48.39771 17.89026 38152 ft 479 kts 267°
2026-04-22 18:17 48.39183 17.79068 38157 ft 477 kts 267°
2026-04-22 18:17 48.38590 17.69167 38166 ft 475 kts 267°
2026-04-22 18:18 48.37990 17.59284 38185 ft 474 kts 267°
2026-04-22 18:18 48.37384 17.49429 38176 ft 473 kts 267°
2026-04-22 18:19 48.36771 17.39637 38172 ft 473 kts 267°
2026-04-22 18:19 48.36146 17.29791 38182 ft 473 kts 267°
2026-04-22 18:20 48.35511 17.19923 38183 ft 475 kts 267°
2026-04-22 18:20 48.34866 17.10034 38185 ft 476 kts 267°
2026-04-22 18:21 48.34213 17.00125 38186 ft 477 kts 267°
2026-04-22 18:21 48.33554 16.90267 38179 ft 477 kts 266°
2026-04-22 18:22 48.32881 16.80331 38184 ft 478 kts 266°
2026-04-22 18:22 48.32198 16.70385 38190 ft 479 kts 266°
2026-04-22 18:23 48.31506 16.60435 38046 ft 481 kts 267°
2026-04-22 18:23 48.31157 16.55438 37765 ft 480 kts 266°
2026-04-22 18:23 48.30811 16.50537 37482 ft 477 kts 266°
2026-04-22 18:24 48.30105 16.40637 36973 ft 477 kts 266°
2026-04-22 18:24 48.29749 16.35674 36722 ft 479 kts 266°
2026-04-22 18:24 48.29026 16.25728 36241 ft 480 kts 266°
2026-04-22 18:25 48.28661 16.20744 36002 ft 481 kts 266°
2026-04-22 18:25 48.28294 16.15753 35771 ft 482 kts 266°
2026-04-22 18:25 48.27923 16.10744 35536 ft 483 kts 266°
2026-04-22 18:26 48.27170 16.00659 34826 ft 489 kts 266°
2026-04-22 18:26 48.26787 15.95578 34486 ft 491 kts 265°
2026-04-22 18:26 48.26401 15.90486 34132 ft 492 kts 265°
2026-04-22 18:26 48.26016 15.85445 33725 ft 493 kts 265°
2026-04-22 18:27 48.25623 15.80334 33311 ft 494 kts 265°
2026-04-22 18:27 48.25225 15.75203 32917 ft 495 kts 265°
2026-04-22 18:27 48.24825 15.70070 32526 ft 496 kts 265°
2026-04-22 18:27 48.24422 15.64924 32136 ft 497 kts 265°
2026-04-22 18:28 48.24015 15.59761 31757 ft 499 kts 265°
2026-04-22 18:28 48.23605 15.54591 31380 ft 500 kts 265°
2026-04-22 18:28 48.23194 15.49413 31002 ft 500 kts 264°
2026-04-22 18:28 48.22780 15.44229 30633 ft 500 kts 264°
2026-04-22 18:29 48.22368 15.39115 30276 ft 501 kts 264°
2026-04-22 18:29 48.21948 15.33923 29840 ft 502 kts 264°
2026-04-22 18:29 48.21526 15.28732 29410 ft 502 kts 264°
2026-04-22 18:29 48.21100 15.23542 28986 ft 502 kts 264°
2026-04-22 18:30 48.20673 15.18355 28572 ft 502 kts 264°
2026-04-22 18:30 48.19812 15.07975 27739 ft 501 kts 264°
2026-04-22 18:30 48.19378 15.02805 27344 ft 499 kts 264°
2026-04-22 18:31 48.18944 14.97648 26946 ft 498 kts 264°
2026-04-22 18:31 48.18508 14.92506 26556 ft 497 kts 264°
2026-04-22 18:31 48.18071 14.87369 26173 ft 497 kts 264°
2026-04-22 18:31 48.17632 14.82240 25781 ft 491 kts 264°
2026-04-22 18:32 48.17206 14.77315 25409 ft 476 kts 264°
2026-04-22 18:32 48.16786 14.72491 25266 ft 458 kts 264°
2026-04-22 18:32 48.16381 14.67869 25253 ft 438 kts 264°
2026-04-22 18:32 48.15992 14.63442 25243 ft 420 kts 265°
2026-04-22 18:33 48.15618 14.59167 25246 ft 411 kts 265°
2026-04-22 18:33 48.15247 14.54932 25266 ft 410 kts 265°
2026-04-22 18:33 48.14879 14.50752 25247 ft 397 kts 265°
2026-04-22 18:33 48.14518 14.46695 24924 ft 393 kts 265°
2026-04-22 18:34 48.14157 14.42622 24247 ft 398 kts 265°
2026-04-22 18:34 48.13795 14.38550 23645 ft 400 kts 265°
2026-04-22 18:34 48.13426 14.34442 23149 ft 397 kts 265°
2026-04-22 18:34 48.13058 14.30377 22714 ft 390 kts 265°
2026-04-22 18:35 48.12695 14.26392 22093 ft 384 kts 265°
2026-04-22 18:35 48.12336 14.22441 21383 ft 382 kts 265°
2026-04-22 18:35 48.11977 14.18510 20690 ft 380 kts 265°
2026-04-22 18:35 48.11621 14.14627 20109 ft 375 kts 265°
2026-04-22 18:36 48.11267 14.10780 19514 ft 371 kts 265°
2026-04-22 18:36 48.10916 14.06974 18910 ft 368 kts 265°
2026-04-22 18:36 48.10565 14.03193 18307 ft 367 kts 265°
2026-04-22 18:36 48.10216 13.99440 17749 ft 362 kts 265°
2026-04-22 18:37 48.09874 13.95783 17180 ft 358 kts 265°
2026-04-22 18:37 48.09524 13.92053 16567 ft 356 kts 265°
2026-04-22 18:37 48.09185 13.88441 15988 ft 354 kts 265°
2026-04-22 18:37 48.08842 13.84814 15437 ft 351 kts 265°
2026-04-22 18:38 48.08501 13.81207 14871 ft 349 kts 265°
2026-04-22 18:38 48.08161 13.77626 14335 ft 347 kts 266°
2026-04-22 18:38 48.07822 13.74067 13785 ft 344 kts 265°
2026-04-22 18:39 48.07150 13.67045 12778 ft 339 kts 265°
2026-04-22 18:39 48.06817 13.63580 12444 ft 334 kts 265°
2026-04-22 18:39 48.06487 13.60165 12076 ft 330 kts 265°
2026-04-22 18:39 48.06159 13.56783 11688 ft 327 kts 264°
2026-04-22 18:40 48.05840 13.53478 11318 ft 325 kts 265°
2026-04-22 18:40 48.05547 13.50148 10965 ft 321 kts 265°
2026-04-22 18:40 48.05274 13.46904 10887 ft 308 kts 265°
2026-04-22 18:40 48.05012 13.43781 10781 ft 298 kts 265°
2026-04-22 18:41 48.04756 13.40737 10528 ft 294 kts 265°
2026-04-22 18:41 48.04502 13.37708 10189 ft 293 kts 265°
2026-04-22 18:41 48.04247 13.34697 9871 ft 291 kts 265°
2026-04-22 18:41 48.03991 13.31705 9529 ft 289 kts 265°
2026-04-22 18:42 48.03737 13.28737 9205 ft 286 kts 265°
2026-04-22 18:42 48.03487 13.25853 8971 ft 282 kts 265°
2026-04-22 18:42 48.03237 13.22959 8670 ft 280 kts 265°
2026-04-22 18:42 48.02988 13.20086 8375 ft 278 kts 265°
2026-04-22 18:43 48.02739 13.17237 8081 ft 276 kts 265°
2026-04-22 18:43 48.02491 13.14398 7791 ft 275 kts 265°
2026-04-22 18:43 48.02244 13.11583 7495 ft 272 kts 265°
2026-04-22 18:43 48.01997 13.08787 7206 ft 271 kts 265°
2026-04-22 18:44 48.01752 13.06005 6922 ft 269 kts 264°
2026-04-22 18:44 48.01507 13.03241 6624 ft 268 kts 265°
2026-04-22 18:44 48.01262 13.00485 6333 ft 267 kts 264°
2026-04-22 18:44 48.01018 12.97750 6037 ft 265 kts 264°
2026-04-22 18:45 48.00774 12.95035 5746 ft 263 kts 264°
2026-04-22 18:45 48.00528 12.92389 5644 ft 250 kts 262°
2026-04-22 18:45 47.99818 12.90125 5491 ft 241 kts 225°
2026-04-22 18:45 47.98389 12.89131 5390 ft 228 kts 184°
2026-04-22 18:46 47.96881 12.89338 5304 ft 211 kts 161°
2026-04-22 18:46 47.95558 12.90146 5076 ft 203 kts 156°
2026-04-22 18:46 47.94256 12.90949 4770 ft 202 kts 156°
2026-04-22 18:46 47.92932 12.91779 4257 ft 210 kts 156°
2026-04-22 18:47 47.91588 12.92631 3909 ft 209 kts 156°
2026-04-22 18:47 47.90274 12.93464 3610 ft 200 kts 156°
2026-04-22 18:47 47.89031 12.94251 3339 ft 188 kts 157°
2026-04-22 18:47 47.87859 12.94971 3051 ft 177 kts 156°
2026-04-22 18:48 47.86809 12.95650 2894 ft 156 kts 156°
2026-04-22 18:48 47.85853 12.96263 2663 ft 144 kts 158°
2026-04-22 18:48 47.84939 12.96842 2481 ft 144 kts 158°
2026-04-22 18:48 47.84009 12.97435 2283 ft 147 kts 158°
2026-04-22 18:49 47.83056 12.98034 2063 ft 150 kts 158°
2026-04-22 18:49 47.82094 12.98646 1853 ft 150 kts 158°
2026-04-22 18:49 47.81141 12.99252 1643 ft 149 kts 158°
2026-04-22 18:49 47.80186 12.99856 1442 ft 149 kts 159°
2026-04-22 18:50 47.79318 13.00403 1420 ft 116 kts 157°
2026-04-22 18:50 47.78734 13.00771 1420 ft 45 kts 157°
2026-04-22 18:50 47.78543 13.00785 1419 ft 15 kts 250°
2026-04-22 18:50 47.78533 13.00680 1419 ft 11 kts 278°
2026-04-22 18:51 47.78599 13.00594 1419 ft 17 kts 337°
2026-04-22 18:51 47.78727 13.00510 1419 ft 23 kts 338°
2026-04-22 18:51 47.78883 13.00410 1419 ft 16 kts 336°
2026-04-22 18:51 47.78951 13.00305 1420 ft 15 kts 281°
2026-04-22 18:52 47.78981 13.00146 1421 ft 18 kts 322°
2026-04-22 18:52 47.79102 13.00063 1421 ft 19 kts 336°
2026-04-22 18:52 47.79204 12.99997 1421 ft 18 kts 336°
2026-04-22 18:52 47.79275 12.99954 1421 ft 8 kts 349°
2026-04-22 18:53 47.79291 13.00018 1421 ft 8 kts 95°
2026-04-22 18:53 47.79286 13.00056 1421 ft 1 kts 101°
2026-04-22 18:53 47.79286 13.00057 1421 ft 0 kts 101°